Voltar ao catálogo

HAWK-10A

AtivoCiênciaSSO
NORAD 60540·PAYLOAD·🇺🇸 United States

Lançado Aug 16, 2024 de Vandenberg Space Force Base

Loading…

Próximas Passagens (próximas 24 horas)

TLE

AtualizadoSource: Space-Track

Época: Sep 14, 2026, 03:47 UTC

1 60540U 24149CA  26257.15825248  .00001657  00000-0  15000-3 0  9990
2 60540  97.6827 331.5211 0004827 121.4790 238.6904 14.96727847113290

Acompanhe HAWK-10A em tempo real com AllMySat

Download on the App Store